Location: Unspecified
(0.0000°N, 0.0000°E)
Time: 20:55:25
(UTC+00:00)

COSMOS 1275 DEB - Pass Details

Date: 21 March 2026
Orbit: 902 x 973 km, 82.9° (Epoch: 8 April)

Event Time Altitude Azimuth Distance (km) Brightness Sun altitude
Rises 19:36:22 0° 319° (NW) 3,653 ? -22.3°
Reaches altitude 10° 19:40:32 10° 292° (WNW) 2,704 ? -23.4°
Maximum altitude 19:43:05 13° 267° (W) 2,503 ? -24.0°
Drops below altitude 10° 19:45:39 10° 242° (WSW) 2,696 ? -24.6°
Sets 19:49:49 0° 215° (SW) 3,632 ? -25.7°
